Location: Sungai Bunut
(2.6333°N, 113.7333°E)
Time: 22:00:34
(UTC+00:00)

Vanguard 1 - All Passes

Search period start: 06 December 2023 00:00
Search period end: 16 December 2023 00:00
Orbit: 652 x 3828 km, 34.3° (Epoch: 05 December)

Date Brightness Start Highest point End Pass type
(mag) Time Alt. Az. Time Alt. Az. Time Alt. Az.
06 Dec - 05:51:31 10° SW 05:57:36 56° SE 06:08:32 10° ENE daylight
06 Dec - 08:11:37 10° W 08:20:09 42° NNW 08:35:19 10° NE daylight
06 Dec - 10:37:16 10° NW 10:48:31 23° N 11:03:57 10° NE visible
06 Dec - 13:05:49 10° NW 13:22:19 25° NNE 13:39:28 10° ENE visible
06 Dec - 15:32:18 10° NW 15:54:28 46° NNE 16:10:44 10° E visible
06 Dec - 17:59:44 10° NW 18:21:22 81° SW 18:33:35 10° SE visible
06 Dec - 20:32:58 10° W 20:43:45 23° SW 20:51:00 10° S visible
07 Dec - 06:11:42 10° SW 06:18:02 85° SE 06:29:54 10° NE daylight
07 Dec - 08:33:03 10° W 08:41:44 33° NNW 08:56:10 10° NE daylight
07 Dec - 10:59:50 10° NW 11:11:22 21° N 11:26:25 10° NE visible
07 Dec - 13:27:20 10° NW 13:45:17 29° NNE 14:03:02 10° ENE visible
07 Dec - 15:53:14 10° NW 16:16:14 57° NNE 16:32:18 10° ESE visible
07 Dec - 18:21:24 10° WNW 18:42:04 64° SW 18:53:52 10° SE visible
07 Dec - 20:57:43 10° WSW 21:04:24 15° SW 21:09:34 10° S visible
08 Dec - 04:14:53 10° S 04:18:34 18° SE 04:23:24 10° E daylight
08 Dec - 06:32:11 10° WSW 06:38:43 67° NNW 06:50:57 10° NE daylight
08 Dec - 08:54:52 10° WNW 09:03:35 26° NNW 09:17:07 10° NE daylight
08 Dec - 11:22:14 10° NW 11:34:25 21° N 11:49:39 10° NE visible
08 Dec - 13:48:30 10° NW 14:07:56 34° NNE 14:26:13 10° E visible
08 Dec - 16:14:11 10° NW 16:37:44 69° NE 16:53:29 10° ESE visible
08 Dec - 18:43:31 10° WNW 19:02:40 49° SW 19:13:54 10° SSE visible
09 Dec - 04:34:08 10° SSW 04:38:48 32° SE 04:45:45 10° ENE daylight
09 Dec - 06:52:59 10° WSW 06:59:41 47° NNW 07:11:46 10° NE daylight
09 Dec - 09:17:03 10° WNW 09:25:43 22° N 09:38:20 10° NE daylight
09 Dec - 11:44:13 10° NW 11:57:32 22° N 12:13:33 10° NE visible
09 Dec - 14:09:25 10° NW 14:30:15 40° NNE 14:48:53 10° E visible
09 Dec - 16:35:15 10° NW 16:58:58 84° NE 17:14:20 10° SE visible
09 Dec - 19:06:12 10° WNW 19:23:13 37° SW 19:33:43 10° SSE visible
10 Dec - 04:53:58 10° SW 04:59:03 54° SE 05:07:22 10° ENE daylight
10 Dec - 07:14:08 10° W 07:20:55 34° NNW 07:32:25 10° NE daylight
10 Dec - 09:39:27 10° NW 09:48:07 19° N 10:00:04 10° NE daylight
10 Dec - 12:05:45 10° NNW 12:20:31 24° NNE 12:37:42 10° ENE visible
10 Dec - 14:30:12 10° NW 14:52:15 48° NNE 15:11:03 10° E visible
10 Dec - 16:56:33 10° NW 17:20:00 81° SW 17:34:55 10° SE visible
10 Dec - 19:29:39 10° W 19:43:51 27° SW 19:53:14 10° S visible
11 Dec - 05:14:10 10° SW 05:19:27 89° SSE 05:28:31 10° NE daylight
11 Dec - 07:35:41 10° WNW 07:42:24 26° NNW 07:53:00 10° NNE daylight
11 Dec - 10:01:51 10° NW 10:10:45 18° N 10:22:35 10° NE daylight
11 Dec - 12:26:53 10° NNW 12:43:16 28° NNE 13:01:41 10° ENE visible
11 Dec - 14:50:57 10° NW 15:13:58 59° NE 15:32:45 10° ESE visible
11 Dec - 17:18:09 10° WNW 17:40:51 65° SW 17:55:15 10° SE visible
11 Dec - 19:54:10 10° W 20:04:41 19° SW 20:12:20 10° S visible
12 Dec - 03:17:19 10° S 03:20:11 16° SE 03:23:30 10° E daylight
12 Dec - 05:34:43 10° WSW 05:40:06 58° NNW 05:49:20 10° NE daylight
12 Dec - 07:57:38 10° WNW 08:04:07 20° NNW 08:13:37 10° NNE daylight
12 Dec - 10:23:55 10° NNW 10:33:33 18° N 10:46:04 10° NE visible
12 Dec - 12:47:43 10° NNW 13:05:43 34° NNE 13:25:12 10° E visible
12 Dec - 15:11:47 10° NW 15:35:27 71° NE 15:54:02 10° ESE visible
12 Dec - 17:40:11 10° WNW 18:01:37 51° SW 18:15:23 10° SSE visible
12 Dec - 20:20:30 10° WSW 20:25:49 12° SW 20:30:17 10° SSW visible
13 Dec - 03:36:29 10° SSW 03:40:30 29° SE 03:45:44 10° E daylight
13 Dec - 05:55:37 10° W 06:01:00 38° NNW 06:09:54 10° NE daylight
13 Dec - 08:19:58 10° NW 08:26:06 17° N 08:34:28 10° NNE daylight
13 Dec - 10:45:28 10° NNW 10:56:22 20° NNE 11:10:21 10° NE visible
13 Dec - 13:08:23 10° NW 13:27:50 41° NNE 13:48:09 10° E visible
13 Dec - 15:32:44 10° NW 15:56:43 85° NE 16:14:59 10° SE visible
13 Dec - 18:02:47 10° WNW 18:22:23 40° SW 18:35:19 10° SSE visible
14 Dec - 03:56:20 10° SW 04:00:48 54° SE 04:07:09 10° ENE daylight
14 Dec - 06:16:55 10° WNW 06:22:10 26° NNW 06:30:14 10° NNE daylight
14 Dec - 08:42:31 10° NNW 08:48:18 15° N 08:55:48 10° NNE daylight
14 Dec - 11:06:32 10° NNW 11:19:03 22° NNE 11:34:57 10° ENE visible
14 Dec - 13:28:57 10° NW 13:49:40 49° NNE 14:10:32 10° ESE visible
14 Dec - 15:53:54 10° NW 16:17:50 80° SW 16:35:39 10° SE visible
14 Dec - 18:26:08 10° W 18:43:16 30° SW 18:55:01 10° SSE visible
15 Dec - 04:16:35 10° SW 04:21:13 84° NW 04:28:05 10° NE daylight
15 Dec - 06:38:41 10° WNW 06:43:32 19° NNW 06:50:24 10° NNE daylight
15 Dec - 09:04:50 10° NNW 09:10:43 14° N 09:18:08 10° NNE daylight
15 Dec - 11:27:16 10° NNW 11:41:30 27° NNE 11:59:21 10° ENE visible
15 Dec - 13:49:33 10° NW 14:11:15 60° NE 14:32:23 10° ESE visible
15 Dec - 16:15:23 10° WNW 16:38:50 66° SW 16:56:04 10° SE visible
15 Dec - 18:50:26 10° W 19:04:22 22° SW 19:14:27 10° S visible
